Starlink 35566

operational
NORAD ID: 66060 Int'l Des: 2025-235 Owner: SPXS Country: US Constellation: starlink
NOTLE

About Starlink 35566

Description loading...

Live Position

Loading 3D Globe...

Upcoming Passes

Altitude History

Altitude vs Time

uPlot chart will show altitude changes over time

Two-Line Element Set

1 66060C 25235D 25293.06715278 .00520220 00000+0 77527-3 0 2930
2 66060 53.1589 188.8585 0006088 293.4601 197.5651 16.03530914 18
Epoch: Oct 20, 2025 • Age: 14 hours

Current Status

Altitude 266.3 km
Velocity 7.75 km/s
Sub-Earth Point 16.40°N, 118.9°E
Launch Date Oct 19, 2025
Age 1 days
Type internet

Technical Details

Classification Payload
Mass 575.00 kg
Dry Mass 530.00 kg
Total Mass 575.00 kg
Length 0.30 m
Diameter 4.10 m
Span 29.00 m
Shape Box + pan
Manufacturer SPXS
Bus Type Starlink V2MO
Phase Status In Orbit
Owner/State SPXS/US

Large Constellations

Loading constellations...